World > North America > United States > Tennessee

Hourly Goodlettsville, TN Regional Weather

Feedback E-mail the Weather

Latest News

Goodlettsville, TN Weather Maps

°F °C°F °C
Goodlettsville Weather Map
UTC Time: 5/26/2022, 16:46
Your Time:

Goodlettsville, TN Regional Weather

Expires:202205261700;;611992
ASUS44 KMEG 261610
RWRTN 
TENNESSEE HOURLY STATE WEATHER ROUNDUP
NATIONAL WEATHER SERVICE MEMPHIS TN
1100 AM CDT THU MAY 26 2022


TNZ008-025-027-028-033-062-065-066-261700-
NORTH MIDDLE TENNESSEE
  
CITY           SKY/WX    TMP DP  RH WIND       PRES   REMARKS
NASHVILLE      CLOUDY    68  61  78 S13       29.91F                  
DICKSON        PTSUNNY   72  66  83 S12G21    29.85F                  
PORTLAND       MOSUNNY   68  66  94 S15       29.90F                  
CLARKSVILLE    CLOUDY    73  65  75 S9G23     29.85F                  
SMYRNA         CLOUDY    68  64  87 S9        29.93F                  
MURFREESBORO   CLOUDY    68  64  88 S12       29.91F                  
COOKEVILLE     CLOUDY    72  68  88 S7G16     29.96F                  
LIVINGSTON     PTSUNNY   72  64  78 S10G18    29.97S                  
CROSSVILLE     CLOUDY    67  63  87 VRB7G20   30.02F                  
ROCKWOOD       CLOUDY    66  66 100 S7G21     30.03S                  
$$


SKY/WX - Weather  TMP - Temperature  DP - Dew Point  RH - Humidity
WIND - Wind Direction/Speed PRES - Barometric Pressure VSB - Visibility
WCI - Wind Chill Index E13G22 Wind - East Wind 13 mph/Gusts of 22 mph

Trending Headlines

Goodlettsville Radar Loop



Goodlettsville Quick Facts


National Two Day Weather Forecast


E-mail the Goodlettsville Weather Forecast

Voice your opinion or tell us about page issues...